Location: Julian California
(33.0790°N, 116.6010°W)
Time: 02:50:24
(UTC-07:00)

Cosmos 1697 Rocket - Pass Details

Date: 21 March 2019
Orbit: 834 x 842 km, 71.0° (Epoch: 23 April)

Event Time Altitude Azimuth Distance (km) Brightness Sun altitude
Rises 20:18:37 0° 211° (SSW) 3,379 6.1 -17.4°
Reaches altitude 10° 20:21:06 10° 216° (SW) 2,448 5.4 -17.9°
Maximum altitude 20:26:35 54° 293° (WNW) 1,017 3.5 -19.1°
Drops below altitude 10° 20:32:06 10° 10° (N) 2,458 5.2 -20.2°
Sets 20:34:37 0° 16° (NNE) 3,395 5.8 -20.7°
